User: anonymous   Login
Location: Newark
(3.3223°N, 76.2348°W)
Time: 22:49:46
(UTC+00:00)
Language:

BEESAT 2 - Orbit

View from above orbital plane
View from above orbital plane
View from above satellite
View from above satellite

Ground track
Ground track

The orbit data is extracted from the following two-line orbital elements,

1 39136U 13015G   20028.64727827  .00000576  00000-0  38513-4 0  9999
2 39136  64.8706  40.5859 0030773 278.8943  80.8700 15.17297280374141
Epoch (UTC): 28 January 2020 15:32:04
Eccentricity: 0.0030773
inclination: 64.8706°
perigee height: 493 km
apogee height: 535 km
right ascension of ascending node: 40.5859°
argument of perigee: 278.8943°
revolutions per day: 15.17297280
mean anomaly at epoch: 80.8700°
orbit number at epoch: 37414

The dashed part of the orbit path shows where the satellite is in the earth's shadow,  

DLR